Weather History for Troy, AL

Change the Weather History Date:

Monday, February 3, 2014

  Actual Average Record
Temperature  
Mean Temperature 55 °F 48 °F  
Max Temperature 66 °F 60 °F 72 °F (2003)
Min Temperature 44 °F 36 °F 21 °F (2000)
Degree Days  
Heating Degree Days 10 17  
Month to date heating degree days 26 52  
Since 1 July heating degree days 1575 1544  
Growing Degree Days 5 (Base 50)    
Moisture  
Dew Point 48 °F    
Average Humidity 80    
Maximum Humidity 93    
Minimum Humidity 66    
Precipitation  
Precipitation 0.20 in 0.15 in 0.66 in (1998)
Month to date precipitation 0.20 0.48  
Year to date precipitation 3.40 5.03  
Snow  
Snow 0.00 in - - ()
Month to date snowfall 0.0  
Since 1 July snowfall 0.3  
Snow Depth 0.00 in    
Sea Level Pressure  
Sea Level Pressure 30.09 in    
Wind  
Wind Speed 9 mph (NW)    
Max Wind Speed 18 mph    
Max Gust Speed 24 mph    
Visibility 9 miles    
Events Rain    
T = Trace of Precipitation, MM = Missing Value Source: NWS Daily Summary

Daily Weather History Graph

Daily Weather History Graph

Search for Another Location

Airport:

Trip Planner

Search our weather history database for the weather conditions in past years. The results will help you decide how hot, cold, wet, or windy it might be!

Date:

Astronomy

Feb. 03, 2014 Rise Set
Actual Time 6:36 AM CST 5:20 PM CST
Civil Twilight 6:10 AM CST 5:45 PM CST
Nautical Twilight 5:41 AM CST 6:14 PM CST
Astronomical Twilight 5:12 AM CST 6:43 PM CST
Moon 8:56 AM CST (2/3) 9:49 PM CST (2/3)
Length of Visible Light 11h 35m
Length of Day
10h 44m
Waxing Crescent, 20% of the Moon is Illuminated
Feb 3
Waxing Crescent
Feb 6
First Quarter
Feb 14
Full
Feb 22
Last Quarter
Mar 1
New

Hourly Weather History & Observations

Time (CST) Temp. Windchill Dew Point Humidity Pressure Visibility Wind Dir Wind Speed Gust Speed Precip Events Conditions
12:53 AM 64.9 °F - 60.1 °F 84% 29.96 in 10.0 mi SSW 11.5 mph - N/A   Overcast
1:53 AM 64.9 °F - 60.1 °F 84% 29.95 in 10.0 mi South 11.5 mph - N/A   Overcast
2:53 AM 64.9 °F - 61.0 °F 87% 29.95 in 10.0 mi South 11.5 mph - N/A   Overcast
3:53 AM 66.0 °F - 61.0 °F 84% 29.96 in 10.0 mi SSW 9.2 mph 19.6 mph N/A   Overcast
4:53 AM 64.9 °F - 61.0 °F 87% 29.99 in 9.0 mi WNW 18.4 mph 23.0 mph 0.01 in Rain Light Rain
5:07 AM 62.1 °F - 59.0 °F 90% 30.00 in 2.5 mi WNW 13.8 mph 21.9 mph 0.08 in Rain Heavy Rain
5:12 AM 61.0 °F - 57.9 °F 90% 30.00 in 3.0 mi NW 10.4 mph 21.9 mph 0.09 in Rain Rain
5:30 AM 60.1 °F - 57.9 °F 93% 30.02 in 3.0 mi West 5.8 mph - 0.14 in Rain Rain
5:46 AM 60.1 °F - 57.9 °F 93% 30.02 in 3.0 mi Calm Calm - 0.19 in Rain Heavy Rain
5:53 AM 60.1 °F - 57.0 °F 90% 30.01 in 5.0 mi Calm Calm - 0.19 in Rain Light Rain
6:19 AM 59.0 °F - 57.0 °F 93% 30.03 in 10.0 mi Calm Calm - 0.00 in   Overcast
6:53 AM 59.0 °F - 57.0 °F 93% 30.03 in 10.0 mi WNW 5.8 mph - 0.00 in   Overcast
7:02 AM 59.0 °F - 57.0 °F 93% 30.04 in 10.0 mi WNW 5.8 mph - N/A   Overcast
7:09 AM 59.0 °F - 55.9 °F 90% 30.05 in 10.0 mi WNW 6.9 mph - N/A   Overcast
7:30 AM 57.9 °F - 55.0 °F 90% 30.07 in 10.0 mi WNW 13.8 mph - 0.00 in Rain Light Rain
7:53 AM 54.0 °F - 51.1 °F 90% 30.08 in 8.0 mi NW 15.0 mph - 0.00 in   Overcast
8:07 AM 51.1 °F - 48.0 °F 89% 30.10 in 10.0 mi NW 17.3 mph - 0.00 in   Overcast
8:20 AM 48.9 °F - 46.0 °F 90% 30.10 in 10.0 mi NNW 17.3 mph - 0.00 in   Overcast
8:31 AM 48.9 °F - 46.0 °F 90% 30.12 in 10.0 mi NW 10.4 mph - 0.00 in Rain Light Rain
8:46 AM 48.0 °F - 46.0 °F 93% 30.12 in 10.0 mi NW 11.5 mph - 0.00 in   Overcast
8:53 AM 48.0 °F - 46.0 °F 93% 30.12 in 10.0 mi NNW 9.2 mph - 0.00 in   Overcast
9:14 AM 48.9 °F - 46.0 °F 90% 30.12 in 10.0 mi NNW 8.1 mph - N/A   Overcast
9:48 AM 50.0 °F - 46.4 °F 87% 30.13 in 10.0 mi WNW 3.5 mph - N/A   Overcast
9:53 AM 50.0 °F - 46.9 °F 89% 30.13 in 10.0 mi NW 5.8 mph - N/A   Overcast
10:45 AM 51.1 °F - 46.9 °F 86% 30.12 in 10.0 mi NW 9.2 mph - N/A   Overcast
10:53 AM 51.1 °F - 46.9 °F 86% 30.12 in 10.0 mi NNW 10.4 mph - N/A   Overcast
11:26 AM 51.1 °F - 46.0 °F 83% 30.12 in 10.0 mi NW 8.1 mph - N/A   Overcast
11:46 AM 51.1 °F - 46.0 °F 83% 30.12 in 10.0 mi NW 10.4 mph - N/A   Overcast
11:53 AM 51.1 °F - 46.0 °F 83% 30.12 in 10.0 mi NW 9.2 mph - N/A   Overcast
12:53 PM 52.0 °F - 45.0 °F 77% 30.09 in 10.0 mi North 9.2 mph - N/A   Overcast
1:07 PM 53.1 °F - 45.0 °F 74% 30.09 in 10.0 mi North 10.4 mph - N/A   Overcast
1:53 PM 53.1 °F - 45.0 °F 74% 30.09 in 10.0 mi NNW 9.2 mph - N/A   Overcast
2:53 PM 55.0 °F - 45.0 °F 69% 30.08 in 10.0 mi North 11.5 mph - N/A   Mostly Cloudy
3:03 PM 55.9 °F - 45.0 °F 67% 30.09 in 10.0 mi North 9.2 mph - N/A   Scattered Clouds
3:53 PM 55.0 °F - 45.0 °F 69% 30.09 in 10.0 mi NNW 8.1 mph - N/A   Clear
4:53 PM 54.0 °F - 45.0 °F 72% 30.10 in 10.0 mi North 5.8 mph - N/A   Clear
5:53 PM 50.0 °F - 44.1 °F 80% 30.11 in 10.0 mi NNW 3.5 mph - N/A   Clear
6:53 PM 48.0 °F - 42.1 °F 80% 30.12 in 10.0 mi North 5.8 mph - N/A   Clear
7:36 PM 46.9 °F - 43.0 °F 86% 30.13 in 10.0 mi NW 3.5 mph - N/A   Mostly Cloudy
7:53 PM 46.9 °F - 42.1 °F 83% 30.14 in 10.0 mi NNW 8.1 mph - N/A   Overcast
8:46 PM 46.0 °F 41.9 °F 41.0 °F 83% 30.14 in 10.0 mi NNW 8.1 mph - N/A   Scattered Clouds
8:53 PM 46.0 °F 41.4 °F 41.0 °F 83% 30.15 in 10.0 mi NNW 9.2 mph - N/A   Scattered Clouds
9:02 PM 46.0 °F 41.9 °F 41.0 °F 83% 30.15 in 10.0 mi NNW 8.1 mph - N/A   Mostly Cloudy
9:35 PM 46.0 °F 42.5 °F 41.0 °F 83% 30.15 in 10.0 mi North 6.9 mph - N/A   Mostly Cloudy
9:53 PM 46.0 °F 42.5 °F 41.0 °F 83% 30.14 in 10.0 mi North 6.9 mph - N/A   Mostly Cloudy
10:53 PM 45.0 °F 41.8 °F 39.9 °F 82% 30.14 in 10.0 mi North 5.8 mph - N/A   Partly Cloudy
11:16 PM 44.1 °F 40.8 °F 39.9 °F 85% 30.14 in 10.0 mi North 5.8 mph - N/A   Partly Cloudy
11:29 PM 44.1 °F 40.1 °F 39.9 °F 85% 30.14 in 10.0 mi North 6.9 mph - N/A   Mostly Cloudy
11:40 PM 44.1 °F 40.8 °F 41.0 °F 89% 30.14 in 10.0 mi NNE 5.8 mph - N/A   Overcast
11:53 PM 45.0 °F 41.8 °F 41.0 °F 86% 30.13 in 10.0 mi NE 5.8 mph - N/A   Overcast